Saipan, MP

11:21 PM ChST on October 17, 2017 (GMT +1000)
Saipan International

Weather History for PGSN - September, 2013

Change the Weather History Date:

Sunday, September 29, 2013

  Actual Average Record
Temperature  
Mean Temperature 82 °F -  
Max Temperature 86 °F 84 °F 89 °F (2012)
Min Temperature 79 °F 76 °F 73 °F (2003)
Cooling Degree Days 18    
Growing Degree Days 32 (Base 50)    
Moisture  
Dew Point 76 °F    
Average Humidity 82    
Maximum Humidity 90    
Minimum Humidity 72    
Precipitation  
Precipitation 0.03 in - - ()
Sea Level Pressure  
Sea Level Pressure 29.75 in    
Wind  
Wind Speed 2 mph (SSE)    
Max Wind Speed 7 mph    
Max Gust Speed -    
Visibility 10 miles    
Events      
Averages and records for this station are not official NWS values.
T = Trace of Precipitation, MM = Missing Value Source: NWS Daily Summary

Daily Weather History Graph

Daily Weather History Graph

Search for Another Location

Airport or City:

Trip Planner

Search our weather history database for the weather conditions in past years. The results will help you decide how hot, cold, wet, or windy it might be!

Date:

Astronomy

Sep. 29, 2013 Rise Set
Actual Time 6:06 AM ChST 6:08 PM ChST
Civil Twilight 5:45 AM ChST 6:29 PM ChST
Nautical Twilight 5:20 AM ChST 6:54 PM ChST
Astronomical Twilight 4:55 AM ChST 7:19 PM ChST
Moon 12:58 AM ChST (9/29) 1:57 PM ChST (9/29)
Length of Visible Light 12h 44m
Length of Day
12h 01m
Waning Crescent, 32% of the Moon is Illuminated
Sep 29
Waning Crescent
Oct 5
New
Oct 12
First Quarter
Oct 19
Full
Oct 27
Last Quarter

Hourly Weather History & Observations

Time (ChST) Temp. Heat Index Dew Point Humidity Pressure Visibility Wind Dir Wind Speed Gust Speed Precip Events Conditions
12:54 AM 80.1 °F 85.4 °F 75.9 °F 87% 29.78 in 10.0 mi Calm Calm - N/A   Clear
1:54 AM 80.1 °F 85.1 °F 75.0 °F 85% 29.75 in 10.0 mi Calm Calm - N/A   Partly Cloudy
2:54 AM 79.0 °F - 75.0 °F 88% 29.73 in 10.0 mi Calm Calm - N/A   Clear
3:54 AM 79.0 °F - 75.9 °F 90% 29.73 in 10.0 mi Calm Calm - N/A   Clear
4:54 AM 79.0 °F - 75.0 °F 88% 29.73 in 10.0 mi Calm Calm - N/A   Clear
5:54 AM 79.0 °F - 75.0 °F 88% 29.74 in 10.0 mi Calm Calm - N/A   Clear
6:54 AM 81.0 °F 87.3 °F 75.9 °F 85% 29.75 in 10.0 mi Calm Calm - N/A   Clear
7:54 AM 84.0 °F 92.6 °F 75.9 °F 76% 29.76 in 10.0 mi Calm Calm - 0.01 in   Clear
8:54 AM 84.0 °F 92.6 °F 75.9 °F 76% 29.78 in 10.0 mi Variable 3.5 mph - N/A   Scattered Clouds
9:54 AM 86.0 °F 96.0 °F 75.9 °F 72% 29.78 in 10.0 mi SE 6.9 mph - N/A   Scattered Clouds
10:54 AM 84.9 °F 94.1 °F 75.9 °F 74% 29.78 in 10.0 mi Variable 4.6 mph - N/A   Scattered Clouds
11:54 AM 86.0 °F 96.9 °F 77.0 °F 74% 29.75 in 10.0 mi Variable 3.5 mph - N/A   Scattered Clouds
12:54 PM 82.9 °F 90.8 °F 75.9 °F 79% 29.75 in 10.0 mi South 4.6 mph - N/A   Mostly Cloudy
1:54 PM 86.0 °F 96.0 °F 75.9 °F 72% 29.73 in 10.0 mi Variable 4.6 mph - N/A   Scattered Clouds
2:54 PM 86.0 °F 96.0 °F 75.9 °F 72% 29.71 in 10.0 mi South 5.8 mph - N/A   Scattered Clouds
3:54 PM 84.0 °F 91.2 °F 73.9 °F 72% 29.72 in 10.0 mi SSE 4.6 mph - N/A   Scattered Clouds
4:54 PM 81.0 °F 86.7 °F 75.0 °F 82% 29.74 in 10.0 mi WNW 3.5 mph - N/A   Overcast
5:01 PM 80.6 °F 86.2 °F 75.2 °F 84% 29.68 in 10.0 mi West 3.5 mph - N/A   Overcast
5:14 PM 82.4 °F 89.5 °F 75.2 °F 79% 29.68 in 10.0 mi NE 6.9 mph - N/A   Overcast
5:54 PM 80.1 °F 85.8 °F 77.0 °F 90% 29.76 in 10.0 mi Calm Calm - 0.02 in   Mostly Cloudy
6:54 PM 79.0 °F - 75.9 °F 90% 29.77 in 10.0 mi Calm Calm - N/A   Partly Cloudy
7:54 PM 80.1 °F 85.4 °F 75.9 °F 87% 29.79 in 10.0 mi Calm Calm - N/A   Clear
8:54 PM 80.1 °F 85.4 °F 75.9 °F 87% 29.81 in 10.0 mi ESE 3.5 mph - N/A   Clear
9:54 PM 79.0 °F - 75.9 °F 90% 29.81 in 10.0 mi Calm Calm - N/A   Clear
10:54 PM 80.1 °F 85.1 °F 75.0 °F 85% 29.81 in 10.0 mi ESE 3.5 mph - N/A   Clear
11:54 PM 80.1 °F 85.1 °F 75.0 °F 85% 29.78 in 10.0 mi Calm Calm - N/A   Partly Cloudy